Regional Weather Roundup
Issued by NWS

Home | Current Version | Previous Version | Graphics & Text | Print | Product List | Glossary On
Versions: 1 2 3 4 5 6 7 8 9 10 11 12 13 14 15 16 17 18 19 20 21 22 23 24 25 26 27 28 29 30 31 32 33 34 35 36 37 38 39 40 41 42 43 44 45 46 47 48 49 50
000
ASUS45 KSLC 181210
RWRUT

UTAH REGIONAL WEATHER ROUNDUP
NATIONAL WEATHER SERVICE SALT LAKE CITY UT
600 AM MDT THU SEP 18 2014

UTZ001>011-023>025-181300-

NORTHERN UTAH

CITY           SKY/WX    TMP DP  RH WIND       PRES   REMARKS
HILL AFB       CLEAR     67  43  41 SE14      29.93R
LOGAN          PTCLDY    63  45  51 SW5       29.90S
OGDEN          CLEAR     67  43  41 S14       29.90R
PROVO AIRPORT  CLEAR     61  43  51 E5        29.97R
SALT LAKE CITY PTCLDY    69  46  43 SE10      29.90S
VERNAL         PTCLDY    51  40  65 NW3       30.04S
WENDOVER       CLEAR     72  45  37 NE8       29.86S
HEBER CITY     CLEAR     46  41  81 CALM      30.05S
WEST JORDAN    CLEAR     70  41  35 S9        29.94S

$$

UTZ012>022-026-027-181300-

SOUTHERN UTAH

CITY           SKY/WX    TMP DP  RH WIND       PRES   REMARKS
BRYCE CANYON   CLEAR     45  43  93 W6        30.20R
CEDAR CITY     CLEAR     60  49  66 SE8       30.04R
MILFORD        CLEAR     55  48  77 S7        29.99R
MOAB/CYNLANDS  CLEAR     62  45  53 E5        29.97R
PRICE          CLEAR     58  36  43 NE8       30.07R
ST GEORGE      SUNNY     72  52  49 E12       29.88S
KANAB            N/A     57  46  67 N6        30.05R

$$

REGIONAL REPORTS     COLORADO/ARIZONA

CITY           SKY/WX    TMP DP  RH WIND       PRES   REMARKS
CRAIG, CO      CLEAR     39  34  82 CALM      30.13R
GRAND JUNCTION CLEAR     59  40  49 E8        30.02R
RIFLE          CLEAR     49  40  71 CALM      30.10S
MONTROSE       CLEAR     54  42  64 SE8       30.12R
CORTEZ         CLEAR     45  44  97 NE5       30.12S
PAGE, AZ       CLEAR     69  52  54 CALM      29.97S
GRAND CANYON   CLEAR     44  42  93 CALM      30.12F
KINGMAN        CLEAR     66  61  84 SE8       29.91S
FLAGSTAFF      CLEAR     48  45  89 CALM      30.13F

$$

REGIONAL REPORTS    NEVADA/IDAHO/WYOMING

CITY           SKY/WX    TMP DP  RH WIND       PRES   REMARKS
LAS VEGAS, NV  PTCLDY    82  59  45 S8        29.74S
ELY            MOCLDY    59  45  59 S10       30.04S
ELKO           MOCLDY    62  44  51 CALM      29.90S
POCATELLO, ID  CLEAR     77  41  27 S23G31    29.83F
BURLEY         MOCLDY    65  48  54 CALM      29.82R
EVANSTON, WY   PTCLDY    56  36  47 S8        30.12S
ROCK SPRINGS   MOCLDY    51  34  52 SE5       30.11S

$$


USA.gov is the U.S. government's official web portal to all federal, state and local government web resources and services.